Location: Dompnac
(44.5644°N, 4.1026°E)
Time: 18:23:25
(UTC+00:00)

Cosmos 1634 Rocket - Pass Details

Date: 18 January 2021
Orbit: 961 x 991 km, 82.9° (Epoch: 05 March)

Event Time Altitude Azimuth Distance (km) Brightness Sun altitude
Rises 04:41:24 0° 132° (SE) 3,635 7.7 -27.0°
Reaches altitude 10° 04:45:05 10° 110° (ESE) 2,693 7.2 -26.3°
Maximum altitude 04:48:16 15° 79° (ENE) 2,371 6.9 -25.8°
Drops below altitude 10° 04:51:27 10° 47° (NE) 2,703 6.8 -25.2°
Sets 04:55:09 0° 25° (NNE) 3,658 7.3 -24.5°
